Regional Weather Roundup
Issued by NWS Kansas City/Pleasant Hill, MO

Home | Current Version | Previous Version | Text Only | Print | Product List | Glossary On
Versions: 1 2 3 4 5 6 7 8 9 10 11 12 13 14 15 16 17 18 19 20 21 22 23 24 25 26 27 28 29 30 31 32 33 34 35 36 37 38 39 40 41 42 43 44 45 46 47 48 49 50
799
ASUS43 KEAX 250210
RWREAX

WEATHER ROUNDUP FOR EASTERN KANSAS AND NORTHWEST MISSOURI
NATIONAL WEATHER SERVICE KANSAS CITY/PLEASANT HILL MO
900 PM CDT SUN SEP 24 2017

KSZ040-057-103>105-MOZ028-029-037-043-250300-
...KANSAS CITY METROPOLITAN AREA...

CITY           SKY/WX    TMP DP  RH WIND       PRES   REMARKS
K.C. INTL      CLEAR     75  66  73 SE7       29.93R
K.C. DOWNTOWN  CLEAR     83  68  60 SE6       29.92R
LEES SUMMIT    CLEAR     80  68  66 S8        29.95R
OLATHE - IXD   CLEAR     77  66  68 SE8       29.94R
OLATHE - OJC   CLEAR     75  68  78 SE5       29.94R
LAWRENCE       CLEAR     73  68  84 E5        29.92R

$$

MOZ001>008-011>017-020>025-030>033-038>040-044>046-053-054-250300-
...NORTHERN AND CENTRAL MISSOURI...

CITY           SKY/WX    TMP DP  RH WIND       PRES   REMARKS
ST. JOSEPH     PTCLDY    72  67  84 CALM      29.92R
MOSBY          PTCLDY    77  64  65 CALM      29.92S
WARRENSBURG    CLEAR     73  66  78 SE5       29.94R
WHITEMAN AFB   CLEAR     78  71  79 S10       29.94R
CLINTON        CLEAR     75  64  69 SE9       29.97R
SEDALIA        CLEAR     78  69  73 S15       29.98R
WARSAW         NOT AVBL
CHILLICOTHE      N/A     73  68  84 CALM      29.94R
KIRKSVILLE     CLEAR     72  63  73 SE5       29.97R

$$

MOZ041-047>049-056>058-063>065-088>090-097-250300-
...EASTERN AND SOUTHERN MISSOURI...

CITY           SKY/WX    TMP DP  RH WIND       PRES   REMARKS
ST. LOUIS INTL PTCLDY    81  63  54 SE6       29.98R
SPIRIT OF STL  PTCLDY    79  66  64 S5        29.97R
COLUMBIA       CLEAR     80  67  64 E6        29.97R
JEFFERSON CITY PTCLDY    75  68  78 CALM      29.94S
ROLLA          CLOUDY    76  64  66 SE9       30.00R
OSAGE BEACH    PTCLDY    73  67  81 SE3       29.98
SPRINGFIELD    CLEAR     70  63  78 SE6       29.98R
BRANSON        MOCLDY    68  68 100 CALM      30.01R
JOPLIN         CLEAR     77  67  71 SE8       29.95R
WEST PLAINS    PTCLDY    71  64  78 S6        30.02S

$$

IAZ060-094-KSZ022-034>040-054-083-096-NEZ052-066-093-250300-
...KANSAS...SOUTHEAST NEBRASKA AND IOWA...

CITY           SKY/WX    TMP DP  RH WIND       PRES   REMARKS
TOPEKA         CLEAR     75  68  78 SE8       29.90R
MANHATTAN      MOCLDY    80  64  58 S7        29.88R
EMPORIA        MOCLDY    74  64  71 SE7       29.92R
CHANUTE        CLEAR     76  69  79 SE6       29.93R
WICHITA        CLOUDY    77  66  68 SE10      29.88R
OMAHA          CLOUDY    70  64  81 N12       29.91R
LINCOLN        LGT RAIN  68  64  87 N13       29.92S
FALLS CITY     CLEAR     75  65  70 SE7       29.89R
LAMONI         CLEAR     78  64  61 SE7       29.93R
DES MOINES     PTCLDY    80  63  55 SE7       29.91R

$$





USA.gov is the U.S. government's official web portal to all federal, state and local government web resources and services.